Location: Bourg-d�Oueil
(42.8588°N, 0.4991°E)
Time: 20:32:47
(UTC+00:00)

Cosmos 1707 - Pass Details

Date: 16 June 2021
Orbit: 514 x 529 km, 82.5° (Epoch: 23 July)

Event Time Altitude Azimuth Distance (km) Brightness Sun altitude
Exits shadow 20:52:36 - 191° (S) 2,357 5.7 -11.1°
Reaches altitude 10° 20:54:03 10° 192° (SSW) 1,758 5.1 -11.3°
Maximum altitude 20:57:55 76° 278° (W) 548 2.9 -11.8°
Drops below altitude 10° 21:01:49 10° 5° (N) 1,781 6.1 -12.2°
Sets 21:03:59 0° 7° (N) 2,677 7.0 -12.5°
